Torna al catalogo

COSMOS 1867 COOLANT

AttivoLEO
NORAD 39647·DEBRIS·🇷🇺 Russia

Lanciato Jul 10, 1987 da Baikonur Cosmodrome

Loading…

Prossimi Passaggi (prossime 24 ore)

TLE

AggiornatoSource: Space-Track

Epoca: Sep 14, 2026, 06:02 UTC

1 39647U 87060Q   26257.25198224  .00000121  00000-0  79737-4 0  9996
2 39647  65.0085 127.8080 0019833 277.5605  82.3227 14.33547853650195

Traccia COSMOS 1867 COOLANT in tempo reale con AllMySat

Download on the App Store